Powrót do katalogu

SL-8 R/B

AktywnyPO
NORAD 11309·ROCKET BODY·🇷🇺 Russia

Wystrzelony Mar 21, 1979 z Plesetsk Cosmodrome

Loading…

Następne Przeloty (najbliższe 24 godziny)

TLE

ŚwieżeSource: Space-Track

Epoka: Sep 14, 2026, 09:43 UTC

1 11309U 79026B   26257.40496919  .00000127  00000-0  11180-3 0  9996
2 11309  82.9684  44.9218 0018694 349.0759  10.9989 13.77558967384645

Śledź SL-8 R/B w czasie rzeczywistym z AllMySat

Download on the App Store